Location: Unspecified
(0.0000°N, 0.0000°E)
Time: 07:17:38
(UTC+02:00)

Tiangong 1 - Visible Passes

Search period start: 25 May 2016 00:00
Search period end: 04 June 2016 00:00
Orbit: 370 x 390 km, 42.8° (Epoch: 24 May)

Date Brightness Start Highest point End Pass type
(mag) Time Alt. Az. Time Alt. Az. Time Alt. Az.
27 May 3.6 21:40:31 10° NNW 21:41:28 17° N 21:41:28 17° N visible
28 May 3.5 20:41:07 10° NNE 20:42:18 12° NE 20:43:30 10° ENE visible
29 May 0.8 21:14:39 10° NW 21:17:47 90° NNE 21:17:59 77° SE visible
30 May 4.2 21:51:59 10° WSW 21:52:20 11° WSW 21:52:20 11° WSW visible
31 May 2.5 20:49:15 10° WNW 20:52:07 31° SW 20:54:31 13° SSE visible
02 Jun 2.1 07:17:30 10° SSW 07:20:24 39° SE 07:23:19 10° ENE visible
02 Jun 3.8 20:24:38 10° WSW 20:26:20 14° SW 20:28:01 10° SSW visible
03 Jun 3.7 06:19:15 14° SE 06:19:15 14° SE 06:20:57 10° ESE visible
